CZ-6A DEB, 60807

Orbit data source: Space-Track

CZ-6A DEB, 60807 is space debris in LEO originally from a launch on Tue, 06 Aug 2024 UTC launched from the Taiyaun Space Center, China (TSC). Debris objects in space refer to the collection of defunct objects orbiting the Earth. Examples of debris include non-operational satellites, rocket bodies, and fragments generated from explosions, collisions, or faulty payload assembly.

Loading next visibility...
Identifier
60807, 2024-140GJ
Orbit
LEO
Country
Flag of CNCN / PRC
Related business
Manufacturer
SAST
Mission
Spacecraft
Bus & Motor
Unknown
Mass
Unknown
Launch date (UTC)
2024-08-06 (2 years ago)
Launch vehicle
Unknown
Launch site
Taiyaun Space Center, China (TSC)
Object type
Payload
Rocket body
Debris
Shape & HBR
Unknown shape, 0.4 m
Radar Cross Section
Medium (>0.1 m² and <1 m²)

Expand to show TLE details & history
Last TLE update: 15 hours ago

TLE from 15 hours ago
0 CZ-6A DEB
1 60807U 24140GJ  26171.26368238  .00000148  00000-0  74048-4 0  9997
2 60807  89.0105 276.3395 0090093 201.5778 158.1601 14.09609417 95414
Epoch: 2026-06-20T06:19Z
TLE epoch observation values (Epoch: 2026-06-20T06:19:42.157Z)
Latitude
0.00001°
Longitude
-87.06696°
Altitude
924.376 km
Speed
7.359 km/s
True Right ascension
18h 25m 21s
True Declination
0° 00' 00"
Sunlit
Object was in full shadow at epoch
Visualization orbit readout
Latitude
Unknown
Longitude
Unknown
Altitude
Unknown
Speed
Unknown
Apparent Right ascension
Unknown
Apparent Declination
Unknown
Sunlit
N/A
Visualization observer readout
Local Sidereal Time
08:41:58
Azimuth
Unknown
Elevation
Unknown
Doppler factor
Unknown
Orbital elements
Apogee altitude
922.864 km
Perigee altitude
792.485 km
Semi-major axis
7,235.811 km
Eccentricity
0.00901
Inclination
89.0105°
RAAN
276.3395°
Arg. of periapsis
201.5778°
True anomaly
158.54019°
Mean anomaly
158.1601°
Eccentric anomaly
158.35054°
Mean motion
3.52624 °/min
Orbital period
102.09 mins
BSTAR
0.000074048
Loading maneuver chart data...
Computing Atmospheric mass density...
Loading historical data...
Loading historical data...
Loading historical data...
Loading historical data...
Loading historical data...
Loading historical data...
Loading historical data...

Documentation

Showing up to 5 results
|